< < Back
Terminal Aerodrome Forecast


Current Version              Previous Versions:   1  2  3  4  5  6  7  8  9  

Terminal Aerodrome Forecast

553
FTUS44 KBMX 182300
TAFMGM
TAF
KMGM 182325Z 1900/1924 01008KT 6SM BR VCSH SCT008 OVC015
     FM190300 35011KT 5SM -DZ BR OVC009
     FM191300 01012G22KT P6SM OVC025
     FM191800 01012G22KT P6SM SCT040=

Latest METAR

992
SAUS80 KWBC 190200 RRB
MTRMGM
METAR KMGM 190153Z 35007KT 10SM OVC023 13/11 A3012 RMK AO2 SLP198
T01330111


USA.gov is the U.S. government's official web portal to all federal, state and local government web resources and services.